RH
93 88 84 69 56 60 74 77 78 72 75 75 70 73 72 73 80 81 83 84 84 82 85 86 85 62 48 42 41 37 36 36 37 39 44 47 48 48 47 48 47 45 45
93 88 83 71 52 65 78 80 79 76 74 73 75 76 73 67 75 74 78 80 81 82 82 83 82 76 57 47 43 41 40 40 39 42 43 47 50 52 53 54 51 49 49
91 87 86 76 50 64 73 79 78 74 73 66 79 72 67 63 63 65 74 76 78 72 71 72 76 74 69 57 48 44 40 42 44 44 44 45 47 49 50 55 55 52 48
90 86 84 72 55 62 82 85 79 74 86 74 69 67 63 61 53 57 67 70 70 68 66 72 70 71 67 63 53 47 44 39 43 45 42 41 42 43 45 53 54 55 52
88 89 86 71 75 72 79 81 80 80 84 74 72 68 60 56 53 49 53 59 67 68 63 56 61 64 63 60 54 47 45 40 41 42 39 41 44 46 47 49 53 56 55
88 90 90 71 65 75 77 77 81 79 84 72 72 70 67 57 55 57 49 49 50 57 62 57 49 56 56 56 52 48 45 40 36 38 40 41 42 44 48 53 52 53 56
89 91 89 76 52 61 75 76 76 78 80 81 78 66 71 60 55 54 52 52 51 48 50 57 53 49 53 54 52 48 42 39 37 43 46 46 47 49 52 54 53 54 54
90 87 77 63 58 70 80 81 80 75 78 81 78 69 64 64 57 56 56 52 51 51 50 49 53 52 43 46 48 45 42 39 42 45 47 49 53 55 55 55 55 55 54
82 73 64 56 65 70 79 78 72 69 76 80 79 79 77 73 65 69 61 55 50 47 48 47 47 47 51 51 48 48 48 51 54 55 54 53 54 57 57 54 55 54 53
86 74 56 53 62 67 72 75 73 69 74 76 76 77 78 76 76 70 68 63 59 53 49 50 49 44 40 43 44 47 48 48 48 49 49 51 57 59 57 54 52 50 48
82 84 60 48 54 64 67 68 75 71 71 75 76 76 78 80 79 75 67 68 67 59 55 51 51 48 48 46 43 41 40 43 43 42 44 46 49 53 51 50 46 43 42
79 79 69 48 55 64 60 59 65 74 75 72 68 77 81 81 79 77 75 73 74 69 61 57 55 54 51 53 53 51 50 49 50 51 49 47 43 42 41 40 40 43 48
75 75 68 56 49 56 59 57 55 66 74 73 68 68 72 77 76 74 76 75 75 76 69 65 63 66 64 60 59 56 53 53 52 50 50 49 50 48 49 49 50 52 55
71 71 62 54 44 40 45 52 51 59 61 64 66 62 66 63 63 72 73 74 74 75 74 68 68 64 64 64 63 63 60 59 62 60 59 60 61 60 59 58 56 56 56
66 68 66 61 50 41 38 41 44 51 53 53 57 57 63 60 56 55 61 75 78 78 79 73 75 69 63 66 64 65 64 63 63 65 65 64 63 63 62 61 61 61 61
60 61 63 65 61 59 47 47 50 47 50 48 49 53 61 66 63 58 56 63 71 80 82 79 76 75 72 69 69 63 63 64 65 68 69 68 66 66 66 66 67 67 66
51 52 53 56 57 57 52 54 50 56 51 46 48 46 53 56 63 63 60 59 73 79 80 80 76 76 79 77 72 69 65 66 67 68 71 69 69 70 69 70 72 71 72
53 52 49 50 52 53 53 61 70 68 66 60 47 42 41 47 57 63 60 59 60 72 77 76 74 78 78 80 75 73 74 70 71 72 73 74 71 71 70 72 73 74 73
62 65 60 49 49 51 54 58 65 72 74 77 73 54 39 38 48 57 57 58 60 65 65 65 76 81 83 82 81 80 82 80 79 74 73 70 72 72 72 71 70 74 77
71 75 73 65 59 55 51 54 59 67 76 78 78 73 52 36 36 46 57 63 62 66 65 62 69 78 82 83 81 81 84 83 81 80 73 70 66 65 71 74 72 68 66
55 65 69 67 70 68 65 57 53 58 71 78 81 80 74 42 34 38 54 72 66 63 64 56 61 66 74 82 82 81 77 77 76 73 78 74 70 70 72 70 71 72 69
37 45 56 63 69 68 74 71 63 60 60 70 76 76 72 50 40 41 44 63 68 65 63 58 59 61 62 63 78 80 81 78 71 70 73 74 76 71 66 67 66 65 67
20 25 36 45 53 64 72 73 78 70 57 60 68 67 66 54 52 49 50 53 59 62 70 62 60 60 62 66 66 69 74 75 75 68 68 68 76 74 73 69 65 65 67
19 16 17 23 33 42 54 65 76 81 77 65 67 71 68 71 69 63 57 56 59 62 63 70 66 63 63 65 67 65 66 68 68 65 66 65 64 63 65 62 58 60 62
25 24 23 20 19 22 30 40 56 74 89 91 79 72 75 72 73 73 60 57 56 59 63 65 67 71 72 68 67 68 66 62 59 55 55 55 51 52 55 56 58 64 67
26 27 26 25 25 25 24 24 30 41 58 80 74 84 80 71 76 77 68 57 55 60 70 69 65 63 69 72 65 65 67 65 59 55 51 52 53 54 54 53 56 61 66